Location: Huntsville
(34.7300°N, 86.5860°W)
Time: 21:50:28
(UTC-06:00)

N. Korean satellite - Visible Passes

Search period start: 18 January 2019 00:00
Search period end: 28 January 2019 00:00
Orbit: 458 x 509 km, 97.2° (Epoch: 17 January)

Date Brightness Start Highest point End Pass type
(mag) Time Alt. Az. Time Alt. Az. Time Alt. Az.
18 Jan 6.5 06:04:01 10° N 06:07:44 75° WNW 06:11:23 10° SSW visible
18 Jan 9.8 18:10:40 10° SW 18:13:08 17° W 18:15:37 10° NW visible
19 Jan 7.8 05:39:30 10° NNE 05:43:05 46° E 05:46:36 10° S visible
19 Jan 8.4 17:45:00 10° SSW 17:48:21 36° W 17:51:48 10° NNW visible
20 Jan 9.4 05:15:27 10° NE 05:18:20 21° E 05:21:11 10° SSE visible
22 Jan 6.6 05:58:49 10° N 06:02:31 89° WNW 06:06:08 10° SSW visible
22 Jan 9.6 18:05:07 10° SW 18:07:52 20° W 18:10:40 10° NW visible
23 Jan 8.2 05:34:22 10° NNE 05:37:50 39° E 05:41:14 10° SSE visible
23 Jan 8.1 17:39:37 10° S 17:43:06 43° W 17:46:40 10° NNW visible
24 Jan 9.6 05:10:28 10° NE 05:13:04 18° E 05:15:38 10° SE visible
25 Jan 6.9 06:18:22 10° N 06:21:53 45° WNW 06:25:19 10° SSW visible
25 Jan 10.3 18:26:14 10° WSW 18:27:25 11° W 18:28:35 10° WNW visible
26 Jan 6.7 05:53:36 10° NNE 05:57:15 78° E 06:00:50 10° S visible
26 Jan 9.4 17:59:35 10° SSW 18:02:35 23° W 18:05:38 10° NW visible
27 Jan 8.5 05:29:14 10° NNE 05:32:33 33° E 05:35:48 10° SSE visible
27 Jan 7.7 17:34:15 10° S 17:37:50 51° W 17:41:29 10° NNW visible
